Terminal Aerodrome Forecast
Issued by NWS

Home | Current Version | Previous Version | Text Only | Print | Product List | Glossary On
Versions: 1 2 3 4 5 6 7 8 9 10 11 12 13 14 15 16 17 18 19 20 21 22 23 24 25 26 27 28 29 30 31 32 33 34 35 36 37 38 39 40 41 42
818
FTUS46 KOTX 140340 AAA
TAFCOE
TAF AMD
KCOE 140340Z 1404/1424 17005KT 6SM -RA BKN015 OVC025
     FM140700 22011KT P6SM OVC018
     FM141800 22007KT P6SM -RA SCT015 OVC022
      AMD LTD TO CLD AND VIS=

USA.gov is the U.S. government's official web portal to all federal, state and local government web resources and services.